Погода в Вологде

Хотите узнать прогноз погоды в Вологде? Тогда Вам сюда: Погода в Вологде

Поиск расширенной информации на нашем сайте:

Полезная информация:

Новости сайта



02.01.2020
Опубликован Долгосрочный прогноз погоды по городам России и ближнего зарубежья на январь 2020 года.
Карты: Прогноз на январь и февраль 2020 года, Сравнение прогнозируемой аномалии приземной температуры воздуха на январь 2020 года по разным моделям.




Погода в Вологде - сегодня

Время (UTC), дата Ветер
(°,м/с) 
Видим.   Явления Облачность Т
(°С)
Тd
(°С)
f(%) Тe
(°С)
Pmin
(гПа)
dP
(гПа)
Po
(мм)
O2
(г/м3)
Тmin Tmax R s Состояние
почвы
12 27.03.20 260 (З) 20000 м    6/6 2000 м средняя 
[Ac trans]
+11.4 -4.7 32 +12  1030.3  -0.8  761  295           
15 27.03.20 250 (З) 20000 м    3/3 2000 м средняя 
[Ac trans]
+10.1 -5.4 33 +11  1028.7  -1.6  760  296    +12       
18 27.03.20 230 (ЮЗ) 20000 м    ясно 
+2.3 -3.8 64 +3  1028.7  -0.5  759  304           
21 27.03.20 220 (ЮЗ) 20000 м    ясно 
-0.6 -4.3 76 1027.8  -1  758  307           
00 28.03.20 220 (ЮЗ) 20000 м    ясно 
-0.6 -5.5 69 -1  1026.8  -1  758  307           
03 28.03.20 210 (ЮЗ) 20000 м    10/0 верхняя 
[Ci]
-0.4 -6.7 62 -1  1025.1  -1.7  756  306  -1.5        замёрзшая 
06 28.03.20 200 (Ю) 20000 м    8/0 верхняя 
[Ci fib]
+5.2 -7.5 39 +5  1023  -1.7  755  299           
09 28.03.20 220 (ЮЗ) 20000 м    9/9 2000 м средняя 
[Ac trans]
+11.7 -10.2 21 +11  1020.2  -2.4  753  292           
12 28.03.20 230 (ЮЗ) 20000 м    8/0 верхняя 
[Ci fib]
+14 -13.2 14 +14  1016.7  -3.3  751  289           
15 28.03.20 200 (Ю) 20000 м    9/4 600 м верхняя 
[Sc|Ci fib]
+11.8 -8 24 +12  1014.1  -2.1  749  290    +14.3       
18 28.03.20 220 (ЮЗ) 20000 м    3/0 верхняя 
[Ci fib]
+7 -6.1 39 +8  1013.1  -1.3  748  294           
21 28.03.20 210 (ЮЗ) 20000 м    3/0 верхняя 
[Ci fib]
+2 -5.3 58 +1  1012.6  -0.7  747  299           
00 29.03.20 тихо ()   20000 м    6/6 2000 м средняя 
[Ac trans]
-1 -5.1 74 -1  1012  -0.8  747  303           
03 29.03.20 350 (С) 20000 м    10/4 2000 м средняя, верхняя 
[Ac trans|Ci]
+0.1 -5.4 66 +1  1011.1  -0.8  746  301  -1.4        замёрзшая 
06 29.03.20 330 (СЗ) 20000 м    9/9 2000 м средняя 
[Ac trans]
+2.7 -3.1 66 +2  1010.6  -0.3  746  298           
09 29.03.20 340 (С) 20000 м    9/9 2000 м средняя 
[Ac trans]
+6.5 -4.7 45 +5  1010.3  -0.1  746  294           
12 29.03.20 330 (СЗ) 5{11}  20000 м    10/10 2000 м 
[As trans]
+3.1 -2.8 65 +1  1010.9  0.4  746  298           
15 29.03.20 340 (С) 4000 м  снег  10/8 360 м средняя 
[Frnb|As op]
-1 -2.1 92 -4  1011.9  0.7  747  302    +6.7  0.5     
18 29.03.20 010 (С) 4000 м  снег  10/10 240 м 
[Frnb|Ns]
-2.4 -3.8 90 -4  1013.2  1.2  748  304           
21 29.03.20 360 (С) 10 км  слаб. снег  10/10 240 м 
[Frnb|Ns]
-3 -4.5 89 -4  1012.8  -0.4  747  305           
00 30.03.20 050 (СВ) 20000 м  {снег}  10/8 240 м средняя 
[Frnb|As op]
-2.9 -6.3 77 -4  1012.3  -0.5  747  305           
03 30.03.20 030 (СВ) 20000 м    10/8 240 м средняя 
[Frnb|As op]
-2.9 -10 58 -7  1012.6  0.3  747  305  -3.2    равномерный
сухой снег
100% 
06 30.03.20 050 (СВ) 20000 м    10/10 2000 м 
[As trans]
-2 -10.2 53 -3  1013.3  0.7  748  304           
09 30.03.20 060 (СВ) 20000 м  в посл. час ливневой снег  10/8 600 м кучево-дожд., средняя 
[Cb cap|As trans]
-1.3 -11.4 46 -4  1014.5  1.2  749  304           
12 30.03.20 020 (С) 20000 м  {ливн. осадки}  10/4 1000 м средняя 
[Sc diur, vesp|As trans]
-0.2 -3  1015  0.6  749  302           
Время (UTC), дата Ветер
(°,м/с) 
Видим.   Явления Облачность Т
(°С)
Тd
(°С)
f(%) Тe
(°С)
Pmin
(гПа)
dP
(гПа)
Po
(мм)
O2
(г/м3)
Тmin Tmax R s Состояние
почвы

Для получения пояснительной информации подведите курсор к названию столбца.

ПОГОДА в Вологде - архив

Всё, что Вы хотите узнать о погоде в Вологде - удобно и подробно!

Выберите нужную дату (начиная с 1 января 2019* года) и нажмите кнопку "Найти".
Будут отображены архивные сводки погоды по пункту Вологда, начиная с указанной даты.


Отображать данные в формате CSV (для использования в таблицах Excel)


Внимание! Наш архив погоды предназначен исключительно для личного некоммерческого использования в познавательных целях. Если Вам необходимы официальные справки о состоянии погоды (для производственных, юридических, коммерческих и т.п. целей), обращайтесь в органы Росгидромета.

*Примечание: данная дата относится к архиву по метеостанциям СССР (Россия, СНГ, Балтия).
Архив по метеостанциям Зарубежной Европы и Азии (кроме Китая) хранится 10 дней, по другим регионам земного шара (Китай, Африка, Америка, Австралия, Океания) - 1 день.

Вологда - район местоположения метеостанции


Название, широта, долгота, высота метеостанции:
Вологда (город) 59.3°ш. 39.9°д. 130 м над ур. моря [Российская Федерация]

Дополнительная информация

В oтличие oт бoльшинства пoгoдных сайтoв мы публикуем пoдрoбную метеoинфoрмацию в детальнoм прoфессиoнальнoм фoрмате.

Характеристики температуры и влажнoсти вoздуха измеряются на высoте 2 м в тени вдали oт зданий и деревьев.
Скoрoсть ветра измеряется на высoте 10 м (на урoвне рoста челoвека скoрoсть ветра ниже в 1.5-2 раза). Если метеoстанция нахoдится в гoрoде или в лесу, тo скoрoсть ветра занижена на 2-4 м/с пo сравнению с oткрытым местoм. Скoрoсть ветра над акватoриями крупных рек и oзёр, а также на вершинах хoлмoв на 2-5 м/с выше, чем в oбычных услoвиях.
Атмoсфернoе давление в разных тoчках местнoсти мoжет значительнo oтличаться oт давления на метеoстанции, в зависимoсти oт услoвий рельефа (при пoдъёме на 10 м давление пoнижается примернo на 1 мм рт.ст.).